Other Surface Observations
Issued by NWS Tucson, AZ

Home | Current Version | Previous Version | Text Only | Print | Product List | Glossary On
Versions: 1 2 3 4 5 6 7 8 9 10 11 12 13 14 15 16 17 18 19 20 21 22 23 24 25 26 27 28 29 30 31 32 33 34 35 36 37 38 39 40 41 42 43 44 45 46 47 48 49 50
000
SXUS55 KTWC 070315
OSOTWC

WEATHER ROUNDUP FOR SOUTHEAST ARIZONA
NATIONAL WEATHER SERVICE TUCSON AZ
815 PM MST WED MAY 06 2015

AZZ504>506-514-070415-
LOCATION       SKY/WX    TMP DP  RH WIND       PRES   REMARKS
TUCSON         CLEAR     77  29  17 SW9       29.79R
DAVIS-MONTHAN  CLEAR     76  30  18 SW12      29.77R
CHILDRENS PARK N/A       80  25  13 SW12              PIMA CO DEQ
ALVERNON/22ND  N/A      N/A N/A N/A N/A               PIMA CO DEQ
CHERRY/GLENN   N/A      N/A N/A N/A N/A               PIMA CO DEQ
TANGERINE      N/A       80 N/A N/A SW11              PIMA CO DEQ
CONTL RANCH    N/A       83  27  13 SW9               PIMA CO DEQ
GRANT/1ST      N/A       81  26  13 SW10              PIMA CO DEQ
CRAYCROFT/22ND N/A      N/A N/A N/A N/A               PIMA CO DEQ
GOLFLINKS/KOLB N/A      N/A N/A N/A N/A               PIMA CO DEQ
AJO/12TH       N/A       82  24  12 SW11              PIMA CO DEQ
SAGUARO EAST   N/A      N/A N/A N/A N/A               PIMA CO DEQ
FAIRGROUNDS    N/A       79 N/A N/A SW15              PIMA CO DEQ
SAGUARO        N/A       78  23  13 W10G16            *SABINO CYN
SAN CARLOS     N/A       75  27  17 W8G14             *SAN CARLOS
GREEN VALLEY   N/A       78  23  13 SW13              PIMA CO DEQ
HORSE CAMP CYN N/A       72  22  15 SW16G23           *ARAVAIPA CYN
RINCON MTNS    N/A       48  20  32 SW5G16            *NR MANNING CAMP
$$

AZZ509>511-070415-
LOCATION       SKY/WX    TMP DP  RH WIND       PRES   REMARKS
SAFFORD        CLEAR     73  22  14 W9        29.75R
STRAY HORSE    N/A       51  20  29 W6G15             *
TRAIL CABIN    N/A       59  17  19 SW3G10            *N OF GRANVILLE
BLACK HILLS    N/A       72  27  19 CALM              *N OF FT THOMAS
DRY LAKE       N/A       51  23  33 W4                *NATANES MTNS
NOON CREEK     N/A       68  20  16 SW6G14            *PINALENO MTNS
COLUMBINE      N/A       45   5  19 S7G18             *PINALENO MTNS
GUTHRIE        N/A       63  10  12 W14G23            *SW OF GUTHRIE
$$

AZZ502-503-513-070415-
LOCATION       SKY/WX    TMP DP  RH WIND       PRES   REMARKS
NOGALES        CLEAR     68  26  20 S10       29.87R
SELLS          N/A       72  43  35 SW12G23           *
SASABE         N/A       70  42  36 SW12G25           *ALTAR VLY
HOPKINS        N/A       56  21  25 W12G28            *SANTA RITA MTNS
CARR CYN       N/A       62  26  25 S3                *W OF HEREFORD
$$

AZZ507-508-512-070415-
LOCATION       SKY/WX    TMP DP  RH WIND       PRES   REMARKS
SIERRA VISTA   CLEAR     67  22  18 SW6       29.90R
DOUGLAS        CLEAR     68  26  20 SW12      29.86R
EMPIRE MTNS    N/A       64  25  23 SW8G17            *LAS CIENEGAS NCA
MULESHOE RANCH N/A       70  23  17 W11G26            *PRESERVE
HEADQUARTERS   N/A       65  13  13 W3G16             *CHIRICAHUA MTNS
$$

.............................NOTES.............................
THIS IS AN AUTOMATED COLLECTIVE WITH MINIMAL QUALITY CONTROL.
PIMA CO DEQ SITES HAVE NONSTANDARD WIND SENSOR HEIGHTS.
PIMA CO DEQ SITES DO NOT REPORT WIND GUSTS.
* INDICATES WIND SENSORS LOCATED AT 20 FEET INSTEAD OF 33 FEET.
..............................KEY..............................
SKY/WX - SKY CONDITION/WEATHER
TMP    - TEMPERATURE IN FAHRENHEIT
DP     - DEWPOINT IN FAHRENHEIT
RH     - RELATIVE HUMIDITY IN PERCENT
WIND   - DIRECTION AND SPEED IN MILES PER HOUR (MPH)
VRB    - VARIABLE WIND DIRECTION
PRES   - MEAN SEA LEVEL PRESSURE IN INCHES OF MERCURY
         F - FALLING PRESSURE   R - RISING PRESSURE
         S - STEADY PRESSURE
VSB    - VISIBILITY IN MILES
HX     - HEAT INDEX IN FAHRENHEIT
WCI    - WIND CHILL INDEX IN FAHRENHEIT
N/A    - NOT AVAILABLE
AFB    - AIR FORCE BASE
         DAVIS-MONTHAN IS DAVIS-MONTHAN AIR FORCE BASE
CYN    - CANYON
MTNS   - MOUNTAINS
NCA    - NATIONAL CONSERVATION AREA
NR     - NEAR
VLY    - VALLEY
CONTL  - CONTINENTAL
PIMA CO DEQ - PIMA COUNTY DEPT OF ENVIRONMENTAL QUALITY



USA.gov is the U.S. government's official web portal to all federal, state and local government web resources and services.